Time,TemperatureF,DewpointF,PressureIn,WindDirection,WindDirectionDegrees,WindSpeedMPH,WindSpeedGustMPH,Humidity,HourlyPrecipIn,Conditions,Clouds,dailyrainin,SoftwareType,DateUTC
2013-07-15 00:01:00,77.0,72.0,30.18,ESE,112,0.0,-999.0,84,-99.99,,,-99.99,,2013-07-15 04:01:00,
2013-07-15 00:11:00,77.0,72.0,30.18,ESE,112,0.0,-999.0,84,-99.99,,,-99.99,,2013-07-15 04:11:00,
2013-07-15 00:22:00,77.0,71.0,30.19,ESE,112,0.0,-999.0,82,-99.99,,,-99.99,,2013-07-15 04:22:00,
2013-07-15 00:32:00,77.0,71.0,30.19,SE,138,1.0,-999.0,81,-99.99,,,-99.99,,2013-07-15 04:32:00,
2013-07-15 00:42:00,77.0,71.0,30.19,SE,138,1.0,-999.0,81,-99.99,,,-99.99,,2013-07-15 04:42:00,
2013-07-15 00:54:00,77.0,70.0,30.19,SSE,155,0.0,-999.0,80,-99.99,,,-99.99,,2013-07-15 04:54:00,
2013-07-15 01:02:00,76.0,69.0,30.19,SSE,155,0.0,-999.0,80,-99.99,,,-99.99,,2013-07-15 05:02:00,
2013-07-15 01:11:00,76.0,69.0,30.19,SSE,155,0.0,-999.0,80,-99.99,,,-99.99,,2013-07-15 05:11:00,
2013-07-15 01:22:00,76.0,70.0,30.19,SSE,155,0.0,-999.0,81,-99.99,,,-99.99,,2013-07-15 05:22:00,
2013-07-15 01:32:00,75.0,69.0,30.19,SSE,155,0.0,-999.0,82,-99.99,,,-99.99,,2013-07-15 05:32:00,
2013-07-15 01:43:00,75.0,69.0,30.19,SSE,155,0.0,-999.0,82,-99.99,,,-99.99,,2013-07-15 05:43:00,
2013-07-15 01:53:00,75.0,69.0,30.19,SSE,155,0.0,-999.0,82,-99.99,,,-99.99,,2013-07-15 05:53:00,
2013-07-15 02:02:00,75.0,69.0,30.19,SSE,155,0.0,-999.0,82,-99.99,,,-99.99,,2013-07-15 06:02:00,
2013-07-15 02:12:00,75.0,69.0,30.19,SSE,155,0.0,-999.0,82,-99.99,,,-99.99,,2013-07-15 06:12:00,
2013-07-15 02:22:00,74.0,69.0,30.19,SSE,155,0.0,-999.0,84,-99.99,,,-99.99,,2013-07-15 06:22:00,
2013-07-15 02:32:00,73.0,69.0,30.18,SSE,155,0.0,-999.0,86,-99.99,,,-99.99,,2013-07-15 06:32:00,
2013-07-15 02:42:00,73.0,69.0,30.18,SSE,155,0.0,-999.0,86,-99.99,,,-99.99,,2013-07-15 06:42:00,
2013-07-15 02:53:00,72.0,68.0,30.19,SSE,155,0.0,-999.0,87,-99.99,,,-99.99,,2013-07-15 06:53:00,
2013-07-15 03:01:00,71.0,68.0,30.19,SSE,155,0.0,-999.0,90,-99.99,,,-99.99,,2013-07-15 07:01:00,
2013-07-15 03:11:00,71.0,68.0,30.19,SSE,155,0.0,-999.0,90,-99.99,,,-99.99,,2013-07-15 07:11:00,
2013-07-15 03:22:00,72.0,69.0,30.18,SSE,155,0.0,-999.0,90,-99.99,,,-99.99,,2013-07-15 07:22:00,
2013-07-15 03:33:00,74.0,70.0,30.19,SSE,155,0.0,-999.0,88,-99.99,,,-99.99,,2013-07-15 07:33:00,
2013-07-15 03:44:00,74.0,70.0,30.19,SSE,155,0.0,-999.0,88,-99.99,,,-99.99,,2013-07-15 07:44:00,
2013-07-15 03:53:00,74.0,70.0,30.19,South,180,0.0,-999.0,86,-99.99,,,-99.99,,2013-07-15 07:53:00,
2013-07-15 04:01:00,74.0,70.0,30.19,SSW,202,1.0,-999.0,86,-99.99,,,-99.99,,2013-07-15 08:01:00,
2013-07-15 04:11:00,74.0,70.0,30.19,SSW,202,1.0,-999.0,86,-99.99,,,-99.99,,2013-07-15 08:11:00,
2013-07-15 04:22:00,74.0,70.0,30.19,SSW,196,1.0,-999.0,86,-99.99,,,-99.99,,2013-07-15 08:22:00,
2013-07-15 04:32:00,74.0,70.0,30.19,SSW,202,0.0,-999.0,87,-99.99,,,-99.99,,2013-07-15 08:32:00,
2013-07-15 04:43:00,74.0,70.0,30.19,SSW,202,0.0,-999.0,87,-99.99,,,-99.99,,2013-07-15 08:43:00,
2013-07-15 04:53:00,73.0,69.0,30.19,SSW,202,0.0,-999.0,87,-99.99,,,-99.99,,2013-07-15 08:53:00,
2013-07-15 05:02:00,73.0,69.0,30.19,SSW,202,0.0,-999.0,88,-99.99,,,-99.99,,2013-07-15 09:02:00,
2013-07-15 05:11:00,73.0,69.0,30.19,SSW,202,0.0,-999.0,88,-99.99,,,-99.99,,2013-07-15 09:11:00,
2013-07-15 05:22:00,73.0,70.0,30.19,SSW,202,0.0,-999.0,89,-99.99,,,-99.99,,2013-07-15 09:22:00,
2013-07-15 05:32:00,72.0,69.0,30.19,SSW,202,0.0,-999.0,89,-99.99,,,-99.99,,2013-07-15 09:32:00,
2013-07-15 05:43:00,72.0,69.0,30.19,SSW,202,0.0,-999.0,89,-99.99,,,-99.99,,2013-07-15 09:43:00,
2013-07-15 05:52:00,72.0,69.0,30.20,SSW,202,0.0,-999.0,90,-99.99,,,-99.99,,2013-07-15 09:52:00,
2013-07-15 06:02:00,72.0,69.0,30.20,SSW,202,0.0,-999.0,91,-99.99,,,-99.99,,2013-07-15 10:02:00,
2013-07-15 06:11:00,72.0,69.0,30.20,SSW,202,0.0,-999.0,91,-99.99,,,-99.99,,2013-07-15 10:11:00,
2013-07-15 06:22:00,72.0,69.0,30.20,SSW,202,0.0,-999.0,91,-99.99,,,-99.99,,2013-07-15 10:22:00,
2013-07-15 06:32:00,72.0,69.0,30.21,SSW,202,0.0,-999.0,91,-99.99,,,-99.99,,2013-07-15 10:32:00,
2013-07-15 06:43:00,72.0,69.0,30.21,SSW,202,0.0,-999.0,91,-99.99,,,-99.99,,2013-07-15 10:43:00,
2013-07-15 06:53:00,72.0,69.0,30.21,SSW,202,0.0,-999.0,91,-99.99,,,-99.99,,2013-07-15 10:53:00,
2013-07-15 07:02:00,72.0,69.0,30.22,SSW,202,0.0,-999.0,91,-99.99,,,-99.99,,2013-07-15 11:02:00,
2013-07-15 07:11:00,72.0,69.0,30.22,SSW,202,0.0,-999.0,91,-99.99,,,-99.99,,2013-07-15 11:11:00,
2013-07-15 07:22:00,72.0,69.0,30.22,SSW,202,0.0,-999.0,91,-99.99,,,-99.99,,2013-07-15 11:22:00,
2013-07-15 07:32:00,73.0,70.0,30.22,SSW,202,0.0,-999.0,90,-99.99,,,-99.99,,2013-07-15 11:32:00,
2013-07-15 07:42:00,73.0,70.0,30.22,SSW,202,0.0,-999.0,90,-99.99,,,-99.99,,2013-07-15 11:42:00,
2013-07-15 07:52:00,74.0,70.0,30.22,SSW,202,0.0,-999.0,88,-99.99,,,-99.99,,2013-07-15 11:52:00,
2013-07-15 08:11:00,75.0,71.0,30.22,SSW,202,1.0,-999.0,87,-99.99,,,-99.99,,2013-07-15 12:11:00,
2013-07-15 08:22:00,75.0,70.0,30.23,SSW,202,1.0,-999.0,85,-99.99,,,-99.99,,2013-07-15 12:22:00,
2013-07-15 08:32:00,77.0,72.0,30.23,SSW,202,0.0,-999.0,85,-99.99,,,-99.99,,2013-07-15 12:32:00,
2013-07-15 08:42:00,77.0,72.0,30.23,SSW,202,0.0,-999.0,85,-99.99,,,-99.99,,2013-07-15 12:42:00,
2013-07-15 08:53:00,78.0,72.0,30.23,SSW,202,0.0,-999.0,82,-99.99,,,-99.99,,2013-07-15 12:53:00,
2013-07-15 09:01:00,78.0,71.0,30.23,SSW,202,0.0,-999.0,79,-99.99,,,-99.99,,2013-07-15 13:01:00,
2013-07-15 09:11:00,78.0,71.0,30.23,SSW,202,0.0,-999.0,79,-99.99,,,-99.99,,2013-07-15 13:11:00,
2013-07-15 09:22:00,79.0,72.0,30.23,SSW,202,2.0,-999.0,79,-99.99,,,-99.99,,2013-07-15 13:22:00,
2013-07-15 09:33:00,79.0,71.0,30.22,SSW,202,1.0,-999.0,77,-99.99,,,-99.99,,2013-07-15 13:33:00,
2013-07-15 09:43:00,79.0,71.0,30.22,SSW,202,1.0,-999.0,77,-99.99,,,-99.99,,2013-07-15 13:43:00,
2013-07-15 09:53:00,81.0,73.0,30.23,WNW,297,1.0,-999.0,76,-99.99,,,-99.99,,2013-07-15 13:53:00,
2013-07-15 10:02:00,81.0,73.0,30.23,WNW,297,1.0,-999.0,76,-99.99,,,-99.99,,2013-07-15 14:02:00,
2013-07-15 10:11:00,81.0,73.0,30.23,NE,51,2.0,-999.0,78,-99.99,,,-99.99,,2013-07-15 14:11:00,
2013-07-15 10:33:00,81.0,73.0,30.22,NE,51,1.0,-999.0,78,-99.99,,,-99.99,,2013-07-15 14:33:00,
2013-07-15 10:42:00,82.0,74.0,30.22,East,86,2.0,-999.0,76,-99.99,,,-99.99,,2013-07-15 14:42:00,
2013-07-15 11:01:00,84.0,75.0,30.22,NE,52,1.0,-999.0,74,-99.99,,,-99.99,,2013-07-15 15:01:00,
2013-07-15 11:18:00,84.0,75.0,30.22,SE,146,1.0,-999.0,74,-99.99,,,-99.99,,2013-07-15 15:18:00,
2013-07-15 11:28:00,84.0,74.0,30.22,ENE,78,1.0,-999.0,73,-99.99,,,-99.99,,2013-07-15 15:28:00,
2013-07-15 11:39:00,86.0,75.0,30.22,ENE,65,0.0,-999.0,70,-99.99,,,-99.99,,2013-07-15 15:39:00,
2013-07-15 11:46:00,86.0,75.0,30.22,ENE,65,0.0,-999.0,70,-99.99,,,-99.99,,2013-07-15 15:46:00,
2013-07-15 12:08:00,85.0,75.0,30.22,East,87,1.0,-999.0,73,-99.99,,,-99.99,,2013-07-15 16:08:00,
2013-07-15 12:15:00,84.0,75.0,30.22,East,83,2.0,-999.0,74,-99.99,,,-99.99,,2013-07-15 16:15:00,
2013-07-15 12:33:00,86.0,75.0,30.22,East,85,1.0,-999.0,70,-99.99,,,-99.99,,2013-07-15 16:33:00,
2013-07-15 12:53:00,87.0,75.0,30.22,SE,130,1.0,-999.0,67,-99.99,,,-99.99,,2013-07-15 16:53:00,
2013-07-15 13:07:00,88.0,75.0,30.22,ENE,73,1.0,-999.0,65,-99.99,,,-99.99,,2013-07-15 17:07:00,
2013-07-15 13:13:00,89.0,76.0,30.21,ENE,65,1.0,-999.0,65,-99.99,,,-99.99,,2013-07-15 17:13:00,
2013-07-15 13:36:00,87.0,74.0,30.21,East,95,3.0,-999.0,66,-99.99,,,-99.99,,2013-07-15 17:36:00,
2013-07-15 13:49:00,85.0,74.0,30.21,ENE,78,5.0,-999.0,69,-99.99,,,-99.99,,2013-07-15 17:49:00,
2013-07-15 13:55:00,85.0,74.0,30.21,ENE,78,5.0,-999.0,69,-99.99,,,-99.99,,2013-07-15 17:55:00,
2013-07-15 14:06:00,87.0,73.0,30.21,East,94,2.0,-999.0,63,-99.99,,,-99.99,,2013-07-15 18:06:00,
2013-07-15 14:17:00,87.0,73.0,30.21,NE,42,2.0,-999.0,63,-99.99,,,-99.99,,2013-07-15 18:17:00,
2013-07-15 14:38:00,87.0,74.0,30.20,SSE,151,2.0,-999.0,65,-99.99,,,-99.99,,2013-07-15 18:38:00,
2013-07-15 14:45:00,87.0,72.0,30.20,East,97,1.0,-999.0,62,-99.99,,,-99.99,,2013-07-15 18:45:00,
2013-07-15 15:05:00,86.0,72.0,30.20,East,92,2.0,-999.0,64,-99.99,,,-99.99,,2013-07-15 19:05:00,
2013-07-15 15:24:00,86.0,73.0,30.20,East,81,0.0,-999.0,65,-99.99,,,-99.99,,2013-07-15 19:24:00,
2013-07-15 15:36:00,86.0,74.0,30.19,East,101,2.0,-999.0,68,-99.99,,,-99.99,,2013-07-15 19:36:00,
2013-07-15 15:47:00,87.0,73.0,30.19,NE,51,2.0,-999.0,64,-99.99,,,-99.99,,2013-07-15 19:47:00,
2013-07-15 15:56:00,87.0,73.0,30.19,NE,51,2.0,-999.0,64,-99.99,,,-99.99,,2013-07-15 19:56:00,
2013-07-15 16:07:00,86.0,73.0,30.19,ENE,77,5.0,-999.0,66,-99.99,,,-99.99,,2013-07-15 20:07:00,
2013-07-15 16:17:00,85.0,74.0,30.19,ENE,61,5.0,-999.0,69,-99.99,,,-99.99,,2013-07-15 20:17:00,
2013-07-15 16:37:00,84.0,73.0,30.18,NNE,18,5.0,-999.0,70,-99.99,,,-99.99,,2013-07-15 20:37:00,
2013-07-15 16:43:00,86.0,73.0,30.18,ENE,63,4.0,-999.0,66,-99.99,,,-99.99,,2013-07-15 20:43:00,
2013-07-15 16:54:00,86.0,73.0,30.18,ENE,63,4.0,-999.0,66,-99.99,,,-99.99,,2013-07-15 20:54:00,
2013-07-15 17:03:00,87.0,72.0,30.17,ENE,58,4.0,-999.0,62,-99.99,,,-99.99,,2013-07-15 21:03:00,
2013-07-15 17:23:00,89.0,71.0,30.17,North,5,2.0,-999.0,56,-99.99,,,-99.99,,2013-07-15 21:23:00,
2013-07-15 17:38:00,88.0,71.0,30.17,ENE,61,4.0,-999.0,57,-99.99,,,-99.99,,2013-07-15 21:38:00,
2013-07-15 17:48:00,88.0,71.0,30.17,ENE,59,2.0,-999.0,58,-99.99,,,-99.99,,2013-07-15 21:48:00,
2013-07-15 17:56:00,88.0,71.0,30.17,ENE,59,2.0,-999.0,58,-99.99,,,-99.99,,2013-07-15 21:56:00,
2013-07-15 18:03:00,88.0,72.0,30.17,East,88,1.0,-999.0,60,-99.99,,,-99.99,,2013-07-15 22:03:00,
2013-07-15 18:18:00,89.0,73.0,30.16,NE,48,1.0,-999.0,59,-99.99,,,-99.99,,2013-07-15 22:18:00,
2013-07-15 18:34:00,89.0,73.0,30.16,NE,52,1.0,-999.0,60,-99.99,,,-99.99,,2013-07-15 22:34:00,
2013-07-15 18:43:00,88.0,71.0,30.16,East,80,1.0,-999.0,58,-99.99,,,-99.99,,2013-07-15 22:43:00,
2013-07-15 18:54:00,88.0,72.0,30.16,East,84,1.0,-999.0,60,-99.99,,,-99.99,,2013-07-15 22:54:00,
2013-07-15 19:06:00,88.0,72.0,30.16,East,84,1.0,-999.0,60,-99.99,,,-99.99,,2013-07-15 23:06:00,
2013-07-15 19:13:00,88.0,73.0,30.15,ENE,65,1.0,-999.0,61,-99.99,,,-99.99,,2013-07-15 23:13:00,
2013-07-15 19:39:00,88.0,73.0,30.16,ENE,63,1.0,-999.0,61,-99.99,,,-99.99,,2013-07-15 23:39:00,
2013-07-15 19:47:00,87.0,75.0,30.15,ENE,59,2.0,-999.0,68,-99.99,,,-99.99,,2013-07-15 23:47:00,
2013-07-15 19:53:00,87.0,76.0,30.16,ENE,68,1.0,-999.0,70,-99.99,,,-99.99,,2013-07-15 23:53:00,
2013-07-15 20:03:00,87.0,76.0,30.16,ENE,68,1.0,-999.0,70,-99.99,,,-99.99,,2013-07-16 00:03:00,
2013-07-15 20:16:00,86.0,76.0,30.16,East,89,1.0,-999.0,73,-99.99,,,-99.99,,2013-07-16 00:16:00,
2013-07-15 20:26:00,85.0,77.0,30.16,East,89,0.0,-999.0,76,-99.99,,,-99.99,,2013-07-16 00:26:00,
2013-07-15 20:33:00,85.0,77.0,30.16,East,89,0.0,-999.0,76,-99.99,,,-99.99,,2013-07-16 00:33:00,
2013-07-15 20:47:00,85.0,77.0,30.16,ENE,58,1.0,-999.0,78,-99.99,,,-99.99,,2013-07-16 00:47:00,
2013-07-15 20:53:00,84.0,77.0,30.15,ENE,66,0.0,-999.0,80,-99.99,,,-99.99,,2013-07-16 00:53:00,
2013-07-15 21:09:00,84.0,77.0,30.15,ENE,66,0.0,-999.0,80,-99.99,,,-99.99,,2013-07-16 01:09:00,
2013-07-15 21:37:00,83.0,76.0,30.15,ENE,66,0.0,-999.0,79,-99.99,,,-99.99,,2013-07-16 01:37:00,
2013-07-15 21:49:00,82.0,74.0,30.15,East,88,0.0,-999.0,78,-99.99,,,-99.99,,2013-07-16 01:49:00,
2013-07-15 21:57:00,82.0,74.0,30.15,East,88,0.0,-999.0,78,-99.99,,,-99.99,,2013-07-16 01:57:00,
2013-07-15 22:11:00,82.0,75.0,30.16,SE,146,0.0,-999.0,79,-99.99,,,-99.99,,2013-07-16 02:11:00,
2013-07-15 22:35:00,82.0,76.0,30.17,SE,146,0.0,-999.0,81,-99.99,,,-99.99,,2013-07-16 02:35:00,
2013-07-15 23:08:00,81.0,74.0,30.18,SE,146,0.0,-999.0,80,-99.99,,,-99.99,,2013-07-16 03:08:00,
2013-07-15 23:39:00,80.0,74.0,30.18,SE,146,0.0,-999.0,82,-99.99,,,-99.99,,2013-07-16 03:39:00,